[[{"header":{"parameterUnit":"m.s-1","parameterCategory":1,"la1":30.2991,"la2":30.254,"lo1":-89.0895,"lo2":-89.0444,"dy":0.0017,"dx":0.0017,"nx":28,"ny":28,"refTime":"2025-08-28T09:00:00:Z","depth":0,"parameterNumber":2,"parameterNumberName":"U-component_of_WINDS"},"data":[0,0,0,0,0,0,0,0,0,0,0,0,0,0,0,0,0,0,0,0,0,0,0,0,0,0,0,0,0,0,0,0,0,0,0,0,0,0,0,0,0,0,0,0,0,0,0,0,0,0,0,0,0,0,0,0,0,0,0.0127,0.0127,0,0.0143,0.0143,0.0143,0.0143,0.0143,0.0142,0.0142,0.0157,0.0158,0.0158,0,0,0,0,0,0,0,0,0,0,0,0,0,0.0095,0.0096,0.0127,0.0127,0.0128,0.0143,0.0143,0.0143,0.0143,0.0143,0.0142,0.0142,0.0157,0.0158,0.0158,0,0,0,0,0,0,0,0,0,0,0,0,0,0.011,0.0096,0.0127,0.0129,0.0129,0.0143,0.0143,0.0143,0.0143,0.0143,0.0142,0.0142,0.0157,0.0158,0.0159,0.0171,0,0,0.0161,0.0162,0,0,0,0,0,0,0,0,0.0109,0.0111,0.0129,0.0129,0.0129,0.0141,0.0137,0.0152,0.0143,0.0138,0.0142,0.0142,0.0152,0.0153,0.0157,0.0171,0.0172,0.0161,0.0162,0.0162,0.0163,0,0,0,0,0,0,0,0.0108,0.011,0.0133,0.0129,0.0129,0.0129,0.0131,0.014,0.0146,0.0138,0.0138,0.014,0.0152,0.0156,0.0157,0.0172,0.0161,0.0162,0.0163,0.0163,0.0197,0.0197,0,0,0,0,0,0,0.0107,0.0109,0.0133,0.0134,0.0118,0.013,0.0132,0.0137,0.0146,0.0147,0.014,0.014,0.0155,0.0156,0.0158,0.0172,0.0162,0.0163,0.0164,0.0196,0.0197,0.0197,0,0,0,0,0,0,0.0106,0.0109,0.0132,0.0122,0.0125,0.0131,0.0137,0.0138,0.0142,0.0148,0.0149,0.0143,0.0154,0.0156,0.0167,0.0172,0.0164,0.0164,0.0196,0.0196,0.0197,0.02,0,0,0,0,0,0,0.0105,0.0109,0.0113,0.0122,0.0125,0.0142,0.0137,0.0138,0.0143,0.0143,0.0151,0.0152,0.0154,0.0166,0.0168,0.0173,0.0165,0.0195,0.0196,0.0197,0.02,0.0201,0.0202,0,0,0,0,0,0.0104,0.0114,0.0114,0.0117,0.0132,0.0142,0.0144,0.0147,0.0144,0.0149,0.0152,0.0152,0.0171,0.0167,0.017,0.0175,0.0195,0.0196,0.0197,0.0199,0.0201,0.0202,0,0,0,0,0,0,0.0106,0.0115,0.0115,0.0128,0.0134,0.0142,0.0148,0.0148,0.0156,0.0155,0.0158,0.0159,0.017,0.0174,0.0169,0.0187,0.0183,0.0184,0.0184,0.0185,0.0186,0.0185,0.0166,0,0,0,0,0,0.0108,0.0116,0.0124,0.0134,0.0137,0.0142,0.0147,0.0149,0.0155,0.0158,0.0163,0.0169,0.0176,0.0181,0.0188,0.02,0.0202,0.0205,0.0207,0.0207,0.0208,0.0214,0.0216,0.02,0.0199,0.0199,0,0,0.0112,0.0118,0.0123,0.0135,0.014,0.0148,0.0145,0.0153,0.0159,0.0159,0.017,0.0173,0.018,0.0191,0.0197,0.0195,0.0213,0.0208,0.0209,0.0209,0.0215,0.0217,0.0218,0.02,0.02,0.02,0,0,0.0123,0.0129,0.0138,0.0143,0.0151,0.0154,0.0156,0.0164,0.0167,0.0177,0.0177,0.0184,0.0197,0.0202,0.0206,0.0219,0.0218,0.0221,0.0226,0.0232,0.0233,0.0234,0.0238,0.024,0.0222,0.0222,0.0222,0,0.0127,0.0139,0.0143,0.0151,0.0156,0.0157,0.0166,0.0171,0.018,0.0183,0.0181,0.0197,0.0202,0.0214,0.0217,0.0221,0.0223,0.022,0.0233,0.0234,0.0235,0.0239,0.024,0.0222,0.0222,0.0222,0.0222,0,0.0143,0.0152,0.0158,0.0168,0.0174,0.0183,0.0186,0.0192,0.0193,0.0196,0.0206,0.0212,0.022,0.0223,0.0224,0.0235,0.0234,0.0232,0.0228,0.0237,0.024,0.0242,0.0223,0.0223,0.0222,0.0222,0,0,0.0156,0.0167,0.017,0.0174,0.0182,0.0189,0.0197,0.0206,0.021,0.0216,0.0223,0.0234,0.0232,0.0237,0.0239,0.0244,0.0253,0.0241,0.0242,0.0243,0.0264,0.0265,0.0267,0.0252,0.0253,0.0253,0.0263,0,0.0168,0.0183,0.0186,0.02,0.0207,0.0208,0.0215,0.0221,0.0224,0.0231,0.0234,0.0241,0.0239,0.0242,0.0247,0.025,0.0257,0.025,0.0258,0.0258,0.0256,0.0269,0.027,0.0279,0.0265,0.0265,0.0265,0,0.0184,0.0191,0.0205,0.0212,0.0215,0.0222,0.0229,0.0236,0.0242,0.0244,0.0249,0.025,0.0258,0.0254,0.0265,0.026,0.0264,0.0266,0.0266,0.0267,0.0262,0.0269,0.0283,0.0284,0.0268,0.0267,0.0267,0,0.0191,0.0204,0.0214,0.0217,0.0226,0.0231,0.0234,0.024,0.0245,0.0251,0.0254,0.0262,0.0265,0.0271,0.0273,0.027,0.0284,0.028,0.0285,0.0285,0.0288,0.0287,0.0302,0.0291,0.0291,0.0291,0.0291,0,0.0203,0.0212,0.0217,0.0223,0.0232,0.0236,0.0244,0.0248,0.0253,0.026,0.0261,0.0266,0.027,0.0276,0.0278,0.0286,0.0288,0.029,0.029,0.0289,0.0289,0.0291,0.029,0.0291,0.0291,0.0291,0.0291,0,0.0212,0.0217,0.0227,0.0235,0.0237,0.0243,0.0249,0.0255,0.0258,0.0266,0.0268,0.0273,0.028,0.0283,0.0292,0.0293,0.0303,0.0303,0.0301,0.0301,0.0305,0.0305,0.0321,0.0323,0.0312,0.0312,0.0312,0,0.022,0.0226,0.0234,0.0239,0.0243,0.025,0.0255,0.0258,0.0263,0.027,0.0275,0.0282,0.0288,0.0299,0.0303,0.031,0.031,0.0315,0.0311,0.031,0.0309,0.0309,0.0309,0.0316,0.0316,0.0316,0.0316,0,0.0232,0.0234,0.0241,0.0248,0.0254,0.026,0.0266,0.0269,0.0273,0.0279,0.0286,0.0291,0.03,0.0307,0.0314,0.0317,0.0317,0.0318,0.0319,0.0318,0.0316,0.0317,0.0302,0.0317,0.0317,0.0317,0.0317,0.0317,0.024,0.0246,0.0252,0.026,0.0265,0.027,0.0276,0.0279,0.0286,0.0294,0.0295,0.0303,0.0309,0.0318,0.0321,0.0327,0.0326,0.0328,0.0329,0.0329,0.0329,0.0316,0.0329,0.0329,0.0329,0.0329,0.0329,0,0.0252,0.0257,0.0263,0.0272,0.0277,0.0277,0.0284,0.0288,0.0295,0.0301,0.0307,0.0315,0.0322,0.0326,0.0333,0.0337,0.0337,0.0338,0.0338,0.0338,0.033,0.0328,0.0338,0.0338,0.0338,0.0338,0.0338,0.0338,0.0259,0.0268,0.0271,0.0282,0.0286,0.0294,0.0298,0.0302,0.0307,0.0316,0.0322,0.0325,0.033,0.0337,0.0343,0.0344,0.0346,0.0347,0.0348,0.034,0.0339,0.0338,0.0336,0.0348,0.0348,0.0356,0.0356,0.0356]},{"header":{"parameterUnit":"m.s-1","parameterCategory":1,"la1":30.2991,"la2":30.254,"lo1":-89.0895,"lo2":-89.0444,"dy":0.0017,"dx":0.0017,"nx":28,"ny":28,"refTime":"2025-08-28T09:00:00:Z","depth":0,"parameterNumber":3,"parameterNumberName":"V-component_of_WINDS"},"data":[0,0,0,0,0,0,0,0,0,0,0,0,0,0,0,0,0,0,0,0,0,0,0,0,0,0,0,0,0,0,0,0,0,0,0,0,0,0,0,0,0,0,0,0,0,0,0,0,0,0,0,0,0,0,0,0,0,0,3.3349,3.3349,0,3.332,3.332,3.332,3.3261,3.3259,3.3258,3.3257,3.3228,3.3228,3.3229,0,0,0,0,0,0,0,0,0,0,0,0,0,3.3354,3.3354,3.3349,3.3349,3.3348,3.332,3.332,3.332,3.3261,3.3259,3.3258,3.3257,3.3228,3.3228,3.3229,0,0,0,0,0,0,0,0,0,0,0,0,0,3.3341,3.3354,3.3349,3.3316,3.3312,3.3321,3.332,3.332,3.3261,3.3259,3.3258,3.3256,3.3228,3.3228,3.3229,3.3267,0,0,3.323,3.323,0,0,0,0,0,0,0,0,3.3342,3.3341,3.3321,3.3318,3.3314,3.3292,3.3311,3.3302,3.3262,3.3281,3.3257,3.3255,3.3251,3.3249,3.3248,3.3266,3.3265,3.323,3.323,3.3231,3.3231,0,0,0,0,0,0,0,3.3343,3.3342,3.3338,3.3321,3.3317,3.3302,3.3299,3.3309,3.3276,3.3279,3.3274,3.3272,3.3249,3.3247,3.3247,3.3264,3.323,3.3231,3.3231,3.3231,3.3313,3.3315,0,0,0,0,0,0,3.3349,3.3343,3.3339,3.3337,3.3324,3.3304,3.33,3.3301,3.3276,3.327,3.3273,3.3269,3.3247,3.3246,3.3245,3.3289,3.3231,3.3231,3.3231,3.3311,3.3314,3.3316,0,0,0,0,0,0,3.3349,3.3349,3.334,3.3339,3.3337,3.3306,3.3308,3.3301,3.33,3.3272,3.3265,3.3278,3.3246,3.3245,3.3262,3.3287,3.3231,3.3232,3.3309,3.3312,3.3315,3.3376,0,0,0,0,0,0,3.3349,3.3349,3.3363,3.334,3.3337,3.3357,3.3309,3.3302,3.3301,3.3295,3.3274,3.3269,3.3245,3.3262,3.3263,3.3287,3.3232,3.3307,3.3311,3.3314,3.3372,3.3381,3.3389,0,0,0,0,0,3.335,3.3382,3.3364,3.3364,3.3354,3.3359,3.3357,3.3328,3.3303,3.3317,3.3299,3.327,3.3285,3.3264,3.3265,3.3289,3.3305,3.331,3.3314,3.3368,3.3379,3.3389,0,0,0,0,0,0,3.3409,3.3378,3.3358,3.3383,3.3374,3.3349,3.3365,3.334,3.3338,3.3332,3.3296,3.3292,3.3315,3.3304,3.3282,3.3326,3.329,3.3295,3.3332,3.3342,3.335,3.3352,3.3233,0,0,0,0,0,3.3425,3.3431,3.3404,3.3429,3.3425,3.3396,3.3397,3.3376,3.3365,3.336,3.3343,3.3334,3.3336,3.3339,3.3339,3.3371,3.3365,3.3388,3.3396,3.3403,3.3407,3.3424,3.3433,3.333,3.333,3.333,0,0,3.3457,3.3441,3.3447,3.344,3.343,3.3438,3.3393,3.3403,3.3408,3.3362,3.3377,3.3365,3.3352,3.3377,3.3387,3.3369,3.3435,3.3409,3.3415,3.3415,3.3429,3.3439,3.3448,3.3333,3.3332,3.3332,0,0,3.3521,3.351,3.3529,3.352,3.3507,3.3487,3.3492,3.3471,3.3461,3.3476,3.3442,3.3448,3.3453,3.3445,3.3442,3.3505,3.3478,3.3507,3.355,3.3566,3.3574,3.3581,3.3603,3.3612,3.3511,3.3511,3.3511,0,3.3563,3.3573,3.3542,3.3554,3.3552,3.3511,3.3531,3.3525,3.3512,3.3511,3.3491,3.3497,3.3486,3.3508,3.3524,3.3523,3.3528,3.3508,3.3576,3.3582,3.3588,3.3609,3.3618,3.3515,3.3514,3.3514,3.3514,0,3.3626,3.3633,3.3651,3.364,3.364,3.3656,3.3628,3.3632,3.3612,3.3595,3.3611,3.3597,3.3594,3.3598,3.3577,3.3618,3.3607,3.3582,3.3545,3.3602,3.3621,3.3629,3.352,3.3518,3.3517,3.3516,0,0,3.3723,3.3696,3.3703,3.3698,3.3681,3.3686,3.3701,3.3698,3.3703,3.3696,3.3707,3.3714,3.369,3.3687,3.3666,3.368,3.3731,3.3653,3.3652,3.3668,3.3775,3.3794,3.3804,3.3714,3.3715,3.3716,3.3776,0,3.3782,3.3805,3.3779,3.3808,3.3815,3.3777,3.379,3.3781,3.3767,3.3771,3.3755,3.3759,3.3728,3.3726,3.3739,3.3722,3.3752,3.3718,3.3724,3.3725,3.3727,3.3813,3.3833,3.389,3.3783,3.3785,3.3786,0,3.3853,3.385,3.388,3.3862,3.3864,3.3876,3.3872,3.3876,3.3866,3.3854,3.3852,3.3826,3.384,3.3806,3.3825,3.3802,3.3803,3.3796,3.3797,3.3796,3.3758,3.3814,3.3907,3.3916,3.3797,3.3796,3.3795,0,3.3921,3.3925,3.3943,3.394,3.3919,3.3928,3.392,3.3908,3.3909,3.3906,3.3906,3.3905,3.3904,3.3904,3.388,3.3857,3.3902,3.3865,3.3892,3.3893,3.3902,3.3902,3.3997,3.3905,3.3905,3.3905,3.3904,0,3.3989,3.4009,3.3973,3.3984,3.4006,3.3976,3.3998,3.3986,3.3976,3.3984,3.3952,3.3961,3.3928,3.3934,3.3915,3.3934,3.3934,3.3925,3.3919,3.3927,3.3928,3.3927,3.3922,3.3907,3.3906,3.3906,3.3906,0,3.4068,3.4045,3.4062,3.4042,3.4037,3.4054,3.4036,3.4046,3.403,3.4041,3.4042,3.4017,3.4022,3.3998,3.3999,3.3987,3.4015,3.4003,3.4018,3.4014,3.4043,3.404,3.4139,3.4151,3.4052,3.4053,3.4054,0,3.4112,3.4126,3.4108,3.4111,3.4105,3.4111,3.4111,3.4083,3.4085,3.4076,3.4087,3.4089,3.409,3.41,3.4082,3.4083,3.407,3.4105,3.407,3.4078,3.4071,3.407,3.4071,3.4112,3.4113,3.4114,3.4115,0,3.4193,3.4181,3.4183,3.4182,3.4184,3.4182,3.4177,3.4182,3.4152,3.4156,3.4161,3.4161,3.4163,3.4166,3.4163,3.4155,3.4131,3.4127,3.4133,3.414,3.4149,3.4144,3.4037,3.4124,3.4123,3.4122,3.4122,3.4122,3.4255,3.4267,3.4256,3.4259,3.4253,3.425,3.4259,3.4244,3.4248,3.4246,3.423,3.4238,3.4229,3.4223,3.4218,3.4224,3.4208,3.4217,3.4219,3.4222,3.4227,3.4149,3.4224,3.4223,3.4223,3.4223,3.4223,0,3.4335,3.4326,3.433,3.4325,3.4328,3.4305,3.4299,3.4304,3.4311,3.4305,3.4306,3.4313,3.4316,3.4299,3.43,3.4309,3.4297,3.431,3.4308,3.4307,3.4241,3.4235,3.4319,3.4319,3.4319,3.4319,3.4319,3.4319,3.4376,3.4394,3.4381,3.4396,3.4387,3.4395,3.4394,3.4391,3.4386,3.4394,3.4397,3.4386,3.4376,3.4376,3.4378,3.4373,3.4375,3.4392,3.4383,3.4321,3.4312,3.4303,3.4297,3.4392,3.4392,3.4448,3.4448,3.4449]}]]